Weather History for Manistique, MI

Change the Weather History Date:

Monday, October 28, 2013

  Actual Average Record
Temperature  
Mean Temperature 30 °F -  
Max Temperature 40 °F 49 °F 65 °F (1971)
Min Temperature 21 °F 35 °F 19 °F (1966)
Degree Days  
Heating Degree Days 34    
Moisture  
Dew Point 23 °F    
Average Humidity 70    
Maximum Humidity 92    
Minimum Humidity 45    
Precipitation  
Precipitation 0.00 in - - ()
Sea Level Pressure  
Sea Level Pressure 30.36 in    
Wind  
Wind Speed 10 mph (North)    
Max Wind Speed 18 mph    
Max Gust Speed 25 mph    
Visibility 10 miles    
Events Rain    
Averages and records for this station are not official NWS values.
T = Trace of Precipitation, MM = Missing Value Source: NWS Daily Summary

Daily Weather History Graph

Daily Weather History Graph

Search for Another Location

Airport:

Trip Planner

Search our weather history database for the weather conditions in past years. The results will help you decide how hot, cold, wet, or windy it might be!

Date:

Astronomy

Oct. 28, 2013 Rise Set
Actual Time 8:19 AM EDT 6:36 PM EDT
Civil Twilight 7:48 AM EDT 7:07 PM EDT
Nautical Twilight 7:13 AM EDT 7:42 PM EDT
Astronomical Twilight 6:39 AM EDT 8:16 PM EDT
Moon 1:53 AM EDT 3:35 PM EDT
Length of Visible Light 11h 18m
Length of Day
10h 16m
Waning Crescent, 34% of the Moon is Illuminated
Oct 28
Waning Crescent
Nov 3
New
Nov 10
First Quarter
Nov 17
Full
Nov 25
Last Quarter

Hourly Weather History & Observations

Time (EDT) Temp. Windchill Dew Point Humidity Pressure Visibility Wind Dir Wind Speed Gust Speed Precip Events Conditions
12:14 AM 38.3 °F 30.1 °F 34.7 °F 87% 30.04 in 10.0 mi North 13.8 mph 20.7 mph N/A   Overcast
12:35 AM 37.8 °F 29.4 °F 34.5 °F 88% 30.05 in 10.0 mi NNW 13.8 mph - N/A   Overcast
12:55 AM 37.4 °F 28.5 °F 33.6 °F 86% 30.07 in 10.0 mi North 15.0 mph 25.3 mph N/A   Overcast
1:14 AM 36.0 °F 27.5 °F 32.0 °F 86% 30.08 in 10.0 mi North 12.7 mph 17.3 mph N/A   Mostly Cloudy
1:35 AM 35.6 °F 25.2 °F 32.4 °F 88% 30.10 in 10.0 mi NNW 18.4 mph 24.2 mph N/A Rain Light Rain
1:54 AM 34.7 °F 25.5 °F 31.8 °F 89% 30.11 in 10.0 mi North 13.8 mph 19.6 mph N/A   Scattered Clouds
2:15 AM 34.3 °F 25.5 °F 30.4 °F 85% 30.13 in 10.0 mi North 12.7 mph 17.3 mph N/A   Clear
2:35 AM 33.6 °F 25.0 °F 30.0 °F 87% 30.14 in 10.0 mi North 11.5 mph - N/A   Scattered Clouds
2:55 AM 33.3 °F 24.6 °F 29.8 °F 87% 30.16 in 10.0 mi North 11.5 mph - N/A   Clear
3:15 AM 32.9 °F 24.7 °F 29.1 °F 86% 30.18 in 10.0 mi North 10.4 mph - N/A   Clear
3:34 AM 32.7 °F 24.5 °F 28.0 °F 83% 30.19 in 10.0 mi North 10.4 mph - N/A   Scattered Clouds
3:55 AM 32.4 °F 24.0 °F 27.3 °F 82% 30.20 in 10.0 mi North 10.4 mph - N/A   Scattered Clouds
4:14 AM 32.2 °F 25.0 °F 26.6 °F 80% 30.22 in 10.0 mi North 8.1 mph - N/A   Mostly Cloudy
4:35 AM 31.3 °F 25.6 °F 26.1 °F 81% 30.23 in 10.0 mi North 5.8 mph - N/A   Mostly Cloudy
4:55 AM 30.4 °F 23.6 °F 25.7 °F 83% 30.23 in 10.0 mi North 6.9 mph - N/A   Scattered Clouds
5:15 AM 31.1 °F 23.7 °F 25.3 °F 79% 30.24 in 10.0 mi North 8.1 mph - N/A   Clear
5:35 AM 30.2 °F 22.6 °F 24.4 °F 79% 30.25 in 10.0 mi North 8.1 mph - N/A   Clear
5:55 AM 29.8 °F 23.0 °F 24.1 °F 79% 30.26 in 10.0 mi North 6.9 mph - N/A   Clear
6:15 AM 29.1 °F 22.1 °F 23.7 °F 80% 30.27 in 10.0 mi North 6.9 mph - N/A   Clear
6:35 AM 29.3 °F 20.8 °F 23.5 °F 79% 30.28 in 10.0 mi North 9.2 mph - N/A   Clear
6:54 AM 29.1 °F 21.3 °F 22.8 °F 77% 30.29 in 10.0 mi North 8.1 mph - N/A   Clear
7:15 AM 28.8 °F 20.9 °F 22.6 °F 78% 30.31 in 10.0 mi North 8.1 mph - N/A   Clear
7:35 AM 28.4 °F 19.7 °F 22.6 °F 79% 30.32 in 10.0 mi NNE 9.2 mph - N/A   Clear
7:54 AM 28.4 °F 20.4 °F 22.1 °F 77% 30.34 in 10.0 mi NNE 8.1 mph - N/A   Clear
8:15 AM 29.3 °F 20.2 °F 22.1 °F 75% 30.35 in 10.0 mi NNE 10.4 mph - N/A   Scattered Clouds
8:35 AM 29.7 °F 22.0 °F 22.1 °F 73% 30.36 in 10.0 mi NNE 8.1 mph - N/A   Clear
8:54 AM 30.0 °F 22.4 °F 22.1 °F 72% 30.37 in 10.0 mi NNE 8.1 mph 16.1 mph N/A   Clear
9:15 AM 30.6 °F 20.7 °F 22.5 °F 72% 30.38 in 10.0 mi NNE 12.7 mph 16.1 mph N/A   Clear
9:35 AM 31.6 °F 23.7 °F 22.8 °F 70% 30.39 in 10.0 mi NNE 9.2 mph - N/A   Clear
9:55 AM 32.0 °F 24.2 °F 22.6 °F 68% 30.40 in 10.0 mi NNE 9.2 mph 18.4 mph N/A   Clear
10:15 AM 32.9 °F 23.2 °F 22.3 °F 65% 30.40 in 10.0 mi NNE 13.8 mph 19.6 mph N/A   Clear
10:35 AM 33.8 °F 24.3 °F 22.3 °F 63% 30.41 in 10.0 mi NNE 13.8 mph 21.9 mph N/A   Clear
10:55 AM 34.7 °F 25.9 °F 22.6 °F 61% 30.41 in 10.0 mi NNE 12.7 mph 21.9 mph N/A   Clear
11:15 AM 35.6 °F 27.5 °F 23.0 °F 60% 30.42 in 10.0 mi NE 11.5 mph 19.6 mph N/A   Clear
11:35 AM 36.3 °F 30.8 °F 23.4 °F 59% 30.43 in 10.0 mi NNE 6.9 mph - N/A   Clear
11:55 AM 36.3 °F 28.9 °F 23.4 °F 59% 30.44 in 10.0 mi NE 10.4 mph - N/A   Clear
12:14 PM 37.0 °F 28.9 °F 23.4 °F 58% 30.45 in 10.0 mi North 12.7 mph 16.1 mph N/A   Scattered Clouds
12:35 PM 37.9 °F 30.0 °F 23.5 °F 56% 30.45 in 10.0 mi North 12.7 mph 19.6 mph N/A   Scattered Clouds
12:55 PM 37.2 °F 30.0 °F 22.5 °F 55% 30.45 in 10.0 mi NNE 10.4 mph 18.4 mph N/A   Scattered Clouds
1:14 PM 38.5 °F 33.4 °F 22.8 °F 53% 30.45 in 10.0 mi North 6.9 mph - N/A   Mostly Cloudy
1:35 PM 39.0 °F 34.8 °F 22.8 °F 52% 30.45 in 10.0 mi North 5.8 mph - N/A   Scattered Clouds
1:55 PM 39.4 °F 34.5 °F 23.2 °F 52% 30.44 in 10.0 mi NNE 6.9 mph - N/A   Scattered Clouds
2:15 PM 40.1 °F 33.2 °F 21.4 °F 47% 30.44 in 10.0 mi North 11.5 mph - N/A   Clear
2:35 PM 40.5 °F 35.1 °F 21.2 °F 46% 30.43 in 10.0 mi NW 8.1 mph - N/A   Clear
2:54 PM 40.1 °F 34.7 °F 21.7 °F 48% 30.43 in 10.0 mi ENE 8.1 mph - N/A   Scattered Clouds
3:15 PM 39.6 °F 35.4 °F 20.1 °F 46% 30.43 in 10.0 mi North 5.8 mph - N/A   Scattered Clouds
3:35 PM 40.8 °F 35.0 °F 20.8 °F 45% 30.43 in 10.0 mi NNW 9.2 mph - N/A   Scattered Clouds
3:54 PM 40.3 °F 33.4 °F 20.3 °F 45% 30.43 in 10.0 mi North 11.5 mph - N/A   Scattered Clouds
4:15 PM 39.7 °F 33.7 °F 19.8 °F 45% 30.43 in 10.0 mi North 9.2 mph - N/A   Scattered Clouds
4:35 PM 39.6 °F 34.0 °F 21.2 °F 48% 30.43 in 10.0 mi North 8.1 mph - N/A   Mostly Cloudy
4:54 PM 39.4 °F 33.2 °F 21.4 °F 49% 30.43 in 10.0 mi NNE 9.2 mph - N/A   Scattered Clouds
5:15 PM 37.9 °F 31.5 °F 21.0 °F 51% 30.43 in 10.0 mi North 9.2 mph - N/A   Clear
5:34 PM 36.0 °F 29.6 °F 20.5 °F 53% 30.44 in 10.0 mi North 8.1 mph - N/A   Clear
5:55 PM 35.6 °F 29.2 °F 20.8 °F 55% 30.44 in 10.0 mi North 8.1 mph - N/A   Clear
6:15 PM 34.0 °F 25.5 °F 20.5 °F 58% 30.44 in 10.0 mi North 11.5 mph - N/A   Clear
6:35 PM 32.9 °F 25.9 °F 20.1 °F 59% 30.45 in 10.0 mi North 8.1 mph - N/A   Clear
6:55 PM 31.8 °F 24.6 °F 20.3 °F 62% 30.45 in 10.0 mi North 8.1 mph - N/A   Clear
7:14 PM 30.7 °F 24.1 °F 20.7 °F 66% 30.46 in 10.0 mi North 6.9 mph - N/A   Clear
7:35 PM 29.3 °F 24.3 °F 20.7 °F 70% 30.46 in 10.0 mi North 4.6 mph - N/A   Clear
7:55 PM 27.5 °F 22.2 °F 20.3 °F 74% 30.47 in 10.0 mi North 4.6 mph - N/A   Clear
8:14 PM 26.8 °F 21.4 °F 20.3 °F 77% 30.46 in 10.0 mi North 4.6 mph - N/A   Clear
8:35 PM 26.6 °F 22.6 °F 20.1 °F 77% 30.46 in 10.0 mi NNE 3.5 mph - N/A   Clear
8:54 PM 26.4 °F 22.4 °F 20.3 °F 78% 30.46 in 10.0 mi NNE 3.5 mph - N/A   Clear
9:15 PM 25.9 °F - 20.3 °F 79% 30.47 in 10.0 mi Calm Calm - N/A   Clear
9:35 PM 26.2 °F - 20.3 °F 78% 30.47 in 10.0 mi Calm Calm - N/A   Clear
9:54 PM 25.2 °F - 20.3 °F 82% 30.47 in 10.0 mi Calm Calm - N/A   Clear
10:15 PM 25.7 °F - 20.8 °F 82% 30.48 in 10.0 mi Calm Calm - N/A   Clear
10:34 PM 23.2 °F - 19.4 °F 85% 30.48 in 10.0 mi Calm Calm - N/A   Clear
10:55 PM 23.4 °F - 19.9 °F 87% 30.48 in 10.0 mi Calm Calm - N/A   Clear
11:15 PM 22.6 °F - 19.6 °F 88% 30.48 in 10.0 mi Calm Calm - N/A   Clear
11:35 PM 21.6 °F - 18.9 °F 89% 30.48 in 10.0 mi Calm Calm - N/A   Clear
11:55 PM 21.9 °F - 19.9 °F 92% 30.48 in 10.0 mi Calm Calm - N/A   Clear